User: anonymous   Login
Location: Lima
(44.6384°N, 112.5920°W)
Time: 00:47:47
(UTC+00:00)
Language:

XW-2B - Orbit

View from above orbital plane
View from above orbital plane
View from above satellite
View from above satellite

Ground track
Ground track

The orbit data is extracted from the following two-line orbital elements,

1 40911U 15049N   24114.82500160  .00057026  00000-0  12411-2 0  9999
2 40911  97.4745 132.5239 0009950 123.9458 236.2737 15.44058671476168
Epoch (UTC): 23 April 2024 19:48:00
Eccentricity: 0.0009950
inclination: 97.4745°
perigee height: 427 km
apogee height: 441 km
right ascension of ascending node: 132.5239°
argument of perigee: 123.9458°
revolutions per day: 15.44058671
mean anomaly at epoch: 236.2737°
orbit number at epoch: 47616

The dashed part of the orbit path shows where the satellite is in the earth's shadow,  

DLR